Nashua, NH

6:24 AM EDT on October 16, 2019 (GMT -0400)
Boire

Weather History for KASH - September, 2019

Change the Weather History Date:

Wednesday, September 18, 2019

  Actual Average Record
Temperature  
Mean Temperature 54 °F -  
Max Temperature 64 °F 71 °F 90 °F (1955)
Min Temperature 44 °F 49 °F 30 °F (1950)
Degree Days  
Heating Degree Days 12    
Growing Degree Days 4 (Base 50)    
Moisture  
Dew Point 43 °F    
Average Humidity 64    
Maximum Humidity 97    
Minimum Humidity 40    
Precipitation  
Precipitation 0.00 in - - ()
Sea Level Pressure  
Sea Level Pressure 30.31 in    
Wind  
Wind Speed 5 mph ()    
Max Wind Speed 10 mph    
Max Gust Speed 20 mph    
Visibility 10.0 miles    
Events      
Averages and records for this station are not official NWS values.
T = Trace of Precipitation, MM = Missing Value Source: Averaged Metar Reports

Daily Weather History Graph

Daily Weather History Graph

Search for Another Location

Airport or City:

Astronomy

Sep. 18, 2019 Rise Set
Actual Time 6:28 AM EDT 6:50 PM EDT
Civil Twilight 6:00 AM EDT 7:19 PM EDT
Nautical Twilight 5:27 AM EDT 7:52 PM EDT
Astronomical Twilight 4:52 AM EDT 8:26 PM EDT
Moon 9:17 PM EDT (9/18) 10:34 AM EDT (9/18)
Length of Visible Light 13h 18m
Length of Day
12h 22m
Waning Gibbous, 82% of the Moon is Illuminated
Sep 18
Waning Gibbous
Sep 21
Last Quarter
Sep 28
New
Oct 5
First Quarter
Oct 13
Full

Hourly Weather History & Observations

Time (EDT) Temp. Windchill Dew Point Humidity Pressure Visibility Wind Dir Wind Speed Gust Speed Precip Events Conditions
12:56 AM 59.0 °F - 55.0 °F 87% 30.24 in 10.0 mi NE 3.5 mph - N/A   Overcast
1:04 AM 59.0 °F - 53.6 °F 82% 30.23 in 10.0 mi NE 5.8 mph - N/A   Overcast
1:17 AM 59.0 °F - 48.2 °F 67% 30.23 in 10.0 mi ENE 6.9 mph - N/A   Overcast
1:56 AM 57.0 °F - 46.0 °F 67% 30.25 in 10.0 mi NNE 5.8 mph - N/A   Overcast
2:56 AM 55.9 °F - 43.0 °F 62% 30.26 in 10.0 mi Variable 3.5 mph - N/A   Overcast
3:56 AM 55.0 °F - 42.1 °F 62% 30.26 in 10.0 mi North 3.5 mph - N/A   Overcast
4:56 AM 54.0 °F - 42.1 °F 64% 30.27 in 10.0 mi NNW 3.5 mph - N/A   Overcast
5:56 AM 53.1 °F - 43.0 °F 69% 30.28 in 10.0 mi NW 4.6 mph - N/A   Overcast
6:56 AM 51.1 °F - 45.0 °F 80% 30.30 in 10.0 mi WNW 3.5 mph - N/A   Overcast
7:56 AM 54.0 °F - 42.1 °F 64% 30.32 in 10.0 mi Variable 3.5 mph - N/A   Overcast
8:56 AM 54.0 °F - 41.0 °F 62% 30.33 in 10.0 mi NNE 5.8 mph - N/A   Mostly Cloudy
9:23 AM 55.4 °F - 39.2 °F 54% 30.32 in 10.0 mi NE 6.9 mph - N/A   Mostly Cloudy
9:56 AM 55.0 °F - 41.0 °F 59% 30.34 in 10.0 mi NNE 8.1 mph - N/A   Mostly Cloudy
10:27 AM 57.2 °F - 39.2 °F 51% 30.33 in 10.0 mi Variable 6.9 mph - N/A   Mostly Cloudy
10:56 AM 59.0 °F - 39.0 °F 48% 30.34 in 10.0 mi East 9.2 mph 16.1 mph N/A   Scattered Clouds
11:56 AM 60.1 °F - 39.9 °F 47% 30.33 in 10.0 mi NE 6.9 mph 17.3 mph N/A   Mostly Cloudy
12:56 PM 61.0 °F - 37.9 °F 42% 30.33 in 10.0 mi NE 9.2 mph 19.6 mph N/A   Scattered Clouds
1:56 PM 62.1 °F - 39.0 °F 43% 30.32 in 10.0 mi ENE 8.1 mph 17.3 mph N/A   Scattered Clouds
2:56 PM 63.0 °F - 39.0 °F 41% 30.32 in 10.0 mi NE 9.2 mph - N/A   Partly Cloudy
3:56 PM 63.0 °F - 39.0 °F 41% 30.31 in 10.0 mi East 10.4 mph - N/A   Clear
4:56 PM 63.0 °F - 37.9 °F 40% 30.33 in 10.0 mi Variable 5.8 mph - N/A   Clear
5:56 PM 62.1 °F - 41.0 °F 46% 30.32 in 10.0 mi ESE 8.1 mph - N/A   Clear
6:56 PM 57.0 °F - 43.0 °F 59% 30.34 in 10.0 mi SSE 4.6 mph - N/A   Clear
7:56 PM 52.0 °F - 44.1 °F 74% 30.35 in 10.0 mi SE 3.5 mph - N/A   Clear
8:56 PM 48.0 °F - 45.0 °F 89% 30.37 in 10.0 mi WNW 3.5 mph - N/A   Clear
9:56 PM 45.0 °F 42.6 °F 44.1 °F 97% 30.39 in 10.0 mi WNW 4.6 mph - N/A   Clear
10:56 PM 44.1 °F 41.5 °F 43.0 °F 96% 30.38 in 10.0 mi WNW 4.6 mph - N/A   Clear
11:56 PM 44.1 °F 40.8 °F 43.0 °F 96% 30.38 in 10.0 mi WNW 5.8 mph - N/A   Clear